Weather History for Crossville, TN

Change the Weather History Date:

Friday, April 26, 2013

  Actual Average Record
Temperature  
Mean Temperature 49 °F -  
Max Temperature 63 °F 70 °F 87 °F (1986)
Min Temperature 35 °F 48 °F 32 °F (1972)
Degree Days  
Heating Degree Days 16    
Month to date heating degree days 274  
Growing Degree Days 0 (Base 50)    
Moisture  
Dew Point 34 °F    
Average Humidity 60    
Maximum Humidity 92    
Minimum Humidity 27    
Precipitation  
Precipitation 0.00 in - - ()
Month to date precipitation 3.78  
Year to date precipitation 18.79  
Sea Level Pressure  
Sea Level Pressure 30.37 in    
Wind  
Wind Speed 3 mph (NE)    
Max Wind Speed 16 mph    
Max Gust Speed 38 mph    
Visibility 8 miles    
Events Fog    
T = Trace of Precipitation, MM = Missing Value Source: NWS Daily Summary

Daily Weather History Graph

Daily Weather History Graph

Search for Another Location

Airport:

Trip Planner

Search our weather history database for the weather conditions in past years. The results will help you decide how hot, cold, wet, or windy it might be!

Date:

Astronomy

Apr. 26, 2013 Rise Set
Actual Time 5:53 AM CDT 7:23 PM CDT
Civil Twilight 5:26 AM CDT 7:50 PM CDT
Nautical Twilight 4:53 AM CDT 8:23 PM CDT
Astronomical Twilight 4:19 AM CDT 8:57 PM CDT
Moon 8:42 PM CDT (4/26) 6:21 AM CDT (4/26)
Length of Visible Light 14h 24m
Length of Day
13h 30m
Full, 99% of the Moon is Illuminated
Apr 26
Full
May 2
Last Quarter
May 9
New
May 17
First Quarter
May 24
Full

Hourly Weather History & Observations

Time (CDT) Temp. Dew Point Humidity Pressure Visibility Wind Dir Wind Speed Gust Speed Precip Events Conditions
12:53 AM 39.9 °F 33.1 °F 77% 30.37 in 10.0 mi Calm Calm - N/A   Clear
2:53 AM 37.9 °F 33.1 °F 83% 30.35 in 10.0 mi Calm Calm - N/A   Clear
3:53 AM 37.0 °F 33.1 °F 86% 30.37 in 10.0 mi Calm Calm - N/A   Clear
4:53 AM 36.0 °F 32.0 °F 86% 30.39 in 10.0 mi Calm Calm - N/A   Clear
5:53 AM 36.0 °F 33.1 °F 89% 30.39 in 6.0 mi Calm Calm - N/A   Scattered Clouds
6:01 AM 35.6 °F 33.8 °F 93% 30.39 in 5.0 mi Calm Calm - N/A   Mostly Cloudy
6:12 AM 35.6 °F 33.8 °F 93% 30.39 in 5.0 mi Calm Calm - N/A   Scattered Clouds
6:15 AM 35.6 °F 33.8 °F 93% 30.39 in 2.5 mi Calm Calm - N/A   Mostly Cloudy
6:17 AM 35.6 °F 33.8 °F 93% 30.39 in 0.8 mi Calm Calm - N/A   Mist
6:19 AM 35.6 °F 33.8 °F 93% 30.39 in 0.2 mi Calm Calm - N/A Fog Fog
6:37 AM 35.6 °F 35.6 °F 100% 30.39 in 0.8 mi Calm Calm - N/A   Mist
6:42 AM 37.4 °F 35.6 °F 93% 30.40 in 1.2 mi Calm Calm - N/A   Scattered Clouds
6:48 AM 37.4 °F 37.4 °F 100% 30.40 in 3.0 mi Calm Calm - N/A   Partly Cloudy
6:53 AM 39.0 °F 37.0 °F 93% 30.40 in 4.0 mi Calm Calm - N/A   Partly Cloudy
7:53 AM 48.0 °F 36.0 °F 63% 30.40 in 10.0 mi Variable 3.5 mph - N/A   Clear
8:53 AM 55.0 °F 34.0 °F 45% 30.37 in 10.0 mi East 6.9 mph - N/A   Clear
9:53 AM 59.0 °F 30.0 °F 33% 30.37 in 10.0 mi ENE 4.6 mph - N/A   Partly Cloudy
10:53 AM 60.1 °F 30.9 °F 33% 30.39 in 10.0 mi ESE 5.8 mph - N/A   Scattered Clouds
11:53 AM 61.0 °F 30.9 °F 32% 30.41 in 10.0 mi Variable 4.6 mph - N/A   Clear
12:53 PM 62.1 °F 28.0 °F 28% 30.39 in 10.0 mi Calm Calm - N/A   Clear
1:53 PM 61.0 °F 27.0 °F 27% 30.35 in 10.0 mi Variable 3.5 mph 34.5 mph N/A   Scattered Clouds
2:53 PM 61.0 °F 28.9 °F 30% 30.33 in 10.0 mi Calm Calm - N/A   Scattered Clouds
3:53 PM 62.1 °F 30.9 °F 31% 30.32 in 10.0 mi ENE 4.6 mph - N/A   Mostly Cloudy
4:53 PM 61.0 °F 33.1 °F 35% 30.35 in 10.0 mi NNE 8.1 mph - N/A   Overcast
5:53 PM 59.0 °F 34.0 °F 39% 30.40 in 10.0 mi NNW 9.2 mph - N/A   Overcast
6:53 PM 55.0 °F 39.0 °F 55% 30.36 in 10.0 mi NE 5.8 mph - N/A   Overcast
7:53 PM 55.0 °F 39.0 °F 55% 30.30 in 10.0 mi Variable 5.8 mph - N/A   Overcast
8:53 PM 54.0 °F 41.0 °F 62% 30.31 in 10.0 mi NNE 3.5 mph - N/A   Overcast
9:53 PM 54.0 °F 41.0 °F 62% 30.32 in 10.0 mi Variable 3.5 mph - N/A   Overcast
10:53 PM 52.0 °F 41.0 °F 66% 30.36 in 10.0 mi SW 3.5 mph - N/A   Overcast
11:53 PM 52.0 °F 42.1 °F 69% 30.35 in 10.0 mi East 3.5 mph - N/A   Overcast